2018-104Q

Last updated on Jan. 16, 2019, 12:02 a.m. UTC

1 43863U 18104Q   19015.48766691  .00610920 -14934-5  56360-3 0  9999
2 43863  85.0093 156.3946 0127938 108.7913 252.7284 15.97432721  4661

Satellite is not in orbit.